| time (UTC) | temp F | wind direction | speed MPH | gust MPH | rain 1hr in | rain 24hr in | rain mn in | humidity % | barometer mb |
| 20260510070603 | 48 | 346 | 2.0 | 7.0 | 0.00 | 0.21 | 0.01 | 86 | 1008.3 |
| 20260510070104 | 48 | 348 | 3.0 | 8.0 | 0.00 | 0.21 | 0.01 | 86 | 1008.2 |
| 20260510065603 | 48 | 343 | 3.0 | 7.0 | 0.00 | 0.21 | 0.01 | 87 | 1008.2 |
| 20260510063103 | 48 | 342 | 2.0 | 3.0 | 0.00 | 0.21 | 0.01 | 89 | 1007.8 |
| 20260510062603 | 48 | 349 | 1.0 | 3.0 | 0.00 | 0.21 | 0.01 | 89 | 1007.7 |
| 20260510061604 | 49 | 336 | 1.0 | 2.0 | 0.00 | 0.21 | 0.01 | 90 | 1007.6 |
| 20260510061103 | 49 | 336 | 0.0 | 1.0 | 0.00 | 0.21 | 0.01 | 90 | 1007.5 |
| 20260510055603 | 49 | 7 | 1.0 | 7.0 | 0.00 | 0.21 | 0.01 | 92 | 1007.6 |
| 20260510055103 | 49 | 355 | 1.0 | 3.0 | 0.00 | 0.21 | 0.01 | 93 | 1007.7 |
| 20260510054603 | 49 | 350 | 2.0 | 3.0 | 0.00 | 0.21 | 0.01 | 94 | 1007.6 |
| 20260510054103 | 49 | 349 | 2.0 | 3.0 | 0.00 | 0.21 | 0.01 | 94 | 1007.6 |
| 20260510053603 | 49 | 346 | 2.0 | 7.0 | 0.00 | 0.21 | 0.01 | 94 | 1007.6 |
| 20260510053104 | 50 | 354 | 4.0 | 8.0 | 0.00 | 0.21 | 0.01 | 95 | 1007.5 |
| 20260510052603 | 50 | 6 | 6.0 | 9.0 | 0.00 | 0.21 | 0.01 | 95 | 1007.5 |
| 20260510052103 | 51 | 339 | 3.0 | 7.0 | 0.01 | 0.21 | 0.01 | 96 | 1007.1 |
| 20260510051603 | 51 | 346 | 4.0 | 8.0 | 0.01 | 0.21 | 0.01 | 96 | 1007.2 |
| 20260510051103 | 51 | 344 | 3.0 | 7.0 | 0.01 | 0.21 | 0.01 | 95 | 1007.2 |
| 20260510050603 | 51 | 341 | 1.0 | 6.0 | 0.01 | 0.21 | 0.01 | 95 | 1006.9 |
| 20260510050104 | 51 | 347 | 2.0 | 3.0 | 0.01 | 0.21 | 0.01 | 95 | 1006.8 |
| 20260510045605 | 51 | 287 | 2.0 | 6.0 | 0.01 | 0.21 | 0.01 | 96 | 1007.1 |
| 20260510045103 | 51 | 298 | 2.0 | 6.0 | 0.01 | 0.21 | 0.01 | 95 | 1007.1 |
| 20260510044605 | 50 | 312 | 2.0 | 7.0 | 0.01 | 0.21 | 0.01 | 95 | 1006.9 |
| 20260510044104 | 50 | 299 | 3.0 | 6.0 | 0.01 | 0.21 | 0.01 | 95 | 1006.8 |
| 20260510043603 | 50 | 281 | 2.0 | 3.0 | 0.01 | 0.21 | 0.01 | 95 | 1006.8 |
| 20260510043104 | 50 | 293 | 2.0 | 3.0 | 0.01 | 0.21 | 0.01 | 94 | 1006.6 |
| 20260510042603 | 50 | 281 | 1.0 | 3.0 | 0.01 | 0.21 | 0.01 | 95 | 1006.4 |
| 20260510042103 | 51 | 297 | 1.0 | 3.0 | 0.00 | 0.20 | 0.00 | 94 | 1006.2 |
| 20260510041603 | 51 | 287 | 3.0 | 5.0 | 0.00 | 0.20 | 0.00 | 94 | 1005.9 |
| 20260510041103 | 51 | 265 | 1.0 | 3.0 | 0.00 | 0.20 | 0.00 | 95 | 1006.0 |
| 20260510040603 | 51 | 263 | 2.0 | 6.0 | 0.00 | 0.20 | 0.00 | 95 | 1005.8 |
| 20260510035604 | 51 | 247 | 3.0 | 3.0 | 0.00 | 0.20 | 0.20 | 94 | 1005.7 |
| 20260510035104 | 51 | 262 | 3.0 | 8.0 | 0.00 | 0.20 | 0.20 | 94 | 1005.6 |
| 20260510034604 | 51 | 252 | 2.0 | 6.0 | 0.00 | 0.20 | 0.20 | 94 | 1005.5 |
| 20260510034103 | 51 | 251 | 3.0 | 7.0 | 0.00 | 0.20 | 0.20 | 94 | 1005.6 |
| 20260510033604 | 52 | 283 | 2.0 | 5.0 | 0.00 | 0.20 | 0.20 | 94 | 1005.6 |
| 20260510033103 | 52 | 271 | 2.0 | 6.0 | 0.00 | 0.20 | 0.20 | 94 | 1005.5 |
| 20260510031604 | 52 | 268 | 3.0 | 7.0 | 0.00 | 0.20 | 0.20 | 94 | 1005.6 |
| 20260510031103 | 51 | 251 | 3.0 | 5.0 | 0.00 | 0.20 | 0.20 | 94 | 1005.6 |
| 20260510030603 | 51 | 281 | 3.0 | 5.0 | 0.00 | 0.20 | 0.20 | 94 | 1005.6 |
| 20260510030103 | 51 | 271 | 4.0 | 10.0 | 0.00 | 0.20 | 0.20 | 94 | 1005.6 |
| 20260510025104 | 51 | 262 | 3.0 | 6.0 | 0.00 | 0.20 | 0.20 | 94 | 1005.6 |
| 20260510024605 | 51 | 278 | 2.0 | 5.0 | 0.00 | 0.20 | 0.20 | 94 | 1005.6 |
| 20260510024105 | 51 | 282 | 3.0 | 6.0 | 0.00 | 0.20 | 0.20 | 94 | 1005.5 |
| 20260510023603 | 51 | 284 | 2.0 | 5.0 | 0.00 | 0.20 | 0.20 | 94 | 1005.3 |
| 20260510022603 | 51 | 268 | 3.0 | 9.0 | 0.00 | 0.20 | 0.20 | 94 | 1005.2 |
| 20260510022103 | 51 | 265 | 3.0 | 5.0 | 0.00 | 0.20 | 0.20 | 94 | 1005.2 |
| 20260510021603 | 51 | 255 | 3.0 | 8.0 | 0.00 | 0.20 | 0.20 | 94 | 1005.1 |
| 20260510021103 | 51 | 269 | 3.0 | 9.0 | 0.00 | 0.20 | 0.20 | 94 | 1005.1 |
| 20260510015603 | 51 | 270 | 3.0 | 10.0 | 0.00 | 0.20 | 0.20 | 94 | 1004.9 |
| 20260510015104 | 51 | 259 | 3.0 | 8.0 | 0.00 | 0.20 | 0.20 | 93 | 1005.0 |
| 20260510014604 | 51 | 263 | 3.0 | 13.0 | 0.00 | 0.20 | 0.20 | 93 | 1005.0 |
| 20260510014103 | 51 | 252 | 5.0 | 12.0 | 0.00 | 0.20 | 0.20 | 93 | 1005.0 |
| 20260510013605 | 51 | 256 | 4.0 | 9.0 | 0.00 | 0.20 | 0.20 | 93 | 1004.9 |
| 20260510013103 | 51 | 262 | 3.0 | 9.0 | 0.00 | 0.20 | 0.20 | 93 | 1004.7 |
| 20260510012603 | 51 | 257 | 3.0 | 9.0 | 0.00 | 0.20 | 0.20 | 93 | 1004.7 |
| 20260510012103 | 51 | 260 | 5.0 | 10.0 | 0.00 | 0.20 | 0.20 | 94 | 1004.7 |
| 20260510011603 | 51 | 276 | 3.0 | 8.0 | 0.00 | 0.20 | 0.20 | 94 | 1004.6 |
| 20260510011103 | 51 | 251 | 6.0 | 13.0 | 0.00 | 0.20 | 0.20 | 94 | 1004.6 |
| 20260510010603 | 51 | 258 | 3.0 | 10.0 | 0.00 | 0.20 | 0.20 | 94 | 1004.5 |
| 20260510010104 | 51 | 251 | 3.0 | 12.0 | 0.00 | 0.20 | 0.20 | 94 | 1004.4 |
| 20260510005603 | 51 | 250 | 3.0 | 9.0 | 0.00 | 0.20 | 0.20 | 93 | 1004.2 |
| 20260510005103 | 51 | 256 | 3.0 | 6.0 | 0.00 | 0.20 | 0.20 | 94 | 1004.0 |
| 20260510004604 | 51 | 250 | 4.0 | 8.0 | 0.00 | 0.20 | 0.20 | 94 | 1003.9 |
| 20260510004104 | 51 | 254 | 5.0 | 12.0 | 0.00 | 0.20 | 0.20 | 94 | 1003.9 |
| 20260510003608 | 51 | 261 | 4.0 | 12.0 | 0.01 | 0.20 | 0.20 | 94 | 1003.9 |
| 20260510003104 | 51 | 233 | 5.0 | 9.0 | 0.01 | 0.20 | 0.20 | 94 | 1003.9 |
| 20260510001603 | 51 | 267 | 2.0 | 10.0 | 0.07 | 0.20 | 0.20 | 93 | 1003.9 |
| 20260510001105 | 51 | 240 | 3.0 | 9.0 | 0.10 | 0.20 | 0.20 | 93 | 1003.8 |
| 20260510000103 | 51 | 262 | 3.0 | 8.0 | 0.16 | 0.20 | 0.20 | 93 | 1003.8 |
| 20260509234603 | 51 | 274 | 2.0 | 8.0 | 0.20 | 0.20 | 0.20 | 92 | 1002.9 |
| 20260509234103 | 51 | 232 | 4.0 | 9.0 | 0.20 | 0.20 | 0.20 | 92 | 1002.9 |
| 20260509233603 | 52 | 256 | 5.0 | 9.0 | 0.19 | 0.19 | 0.19 | 91 | 1003.8 |
| 20260509233103 | 52 | 290 | 4.0 | 12.0 | 0.19 | 0.19 | 0.19 | 91 | 1004.3 |
| 20260509232604 | 52 | 297 | 6.0 | 15.0 | 0.17 | 0.17 | 0.17 | 91 | 1004.2 |
| 20260509232103 | 52 | 305 | 7.0 | 15.0 | 0.15 | 0.15 | 0.15 | 90 | 1004.2 |
| 20260509231103 | 53 | 330 | 6.0 | 20.0 | 0.10 | 0.10 | 0.10 | 88 | 1004.3 |
| 20260509230104 | 56 | 338 | 14.0 | 32.0 | 0.04 | 0.04 | 0.04 | 80 | 1004.4 |
| 20260509225104 | 62 | 299 | 3.0 | 9.0 | 0.00 | 0.00 | 0.00 | 74 | 1002.4 |
| 20260509224603 | 62 | 233 | 3.0 | 8.0 | 0.00 | 0.00 | 0.00 | 73 | 1001.9 |
| 20260509224104 | 62 | 242 | 1.0 | 3.0 | 0.00 | 0.00 | 0.00 | 73 | 1001.8 |
| 20260509223604 | 62 | 209 | 1.0 | 2.0 | 0.00 | 0.00 | 0.00 | 73 | 1001.7 |
| 20260509222603 | 62 | 240 | 2.0 | 6.0 | 0.00 | 0.00 | 0.00 | 72 | 1001.7 |
| 20260509222104 | 62 | 240 | 2.0 | 7.0 | 0.00 | 0.00 | 0.00 | 73 | 1001.8 |
| 20260509221104 | 62 | 215 | 1.0 | 3.0 | 0.00 | 0.00 | 0.00 | 72 | 1001.9 |
| 20260509220603 | 62 | 220 | 1.0 | 6.0 | 0.00 | 0.00 | 0.00 | 72 | 1001.9 |
| 20260509215603 | 62 | 259 | 2.0 | 7.0 | 0.00 | 0.00 | 0.00 | 71 | 1002.2 |
| 20260509215103 | 62 | 255 | 2.0 | 8.0 | 0.00 | 0.00 | 0.00 | 70 | 1002.2 |
| 20260509214603 | 62 | 246 | 3.0 | 7.0 | 0.00 | 0.00 | 0.00 | 71 | 1002.2 |
| 20260509214103 | 63 | 252 | 3.0 | 9.0 | 0.00 | 0.00 | 0.00 | 70 | 1002.2 |
| 20260509213604 | 63 | 235 | 2.0 | 5.0 | 0.00 | 0.00 | 0.00 | 71 | 1002.2 |
| 20260509213103 | 63 | 235 | 1.0 | 5.0 | 0.00 | 0.00 | 0.00 | 71 | 1002.3 |
| 20260509212605 | 63 | 247 | 3.0 | 6.0 | 0.00 | 0.00 | 0.00 | 71 | 1002.1 |
| 20260509211603 | 63 | 270 | 4.0 | 12.0 | 0.00 | 0.00 | 0.00 | 70 | 1002.4 |
| 20260509211103 | 63 | 284 | 3.0 | 10.0 | 0.00 | 0.00 | 0.00 | 71 | 1002.6 |
| 20260509210603 | 64 | 249 | 3.0 | 7.0 | 0.00 | 0.00 | 0.00 | 71 | 1002.7 |
| 20260509210104 | 64 | 299 | 4.0 | 10.0 | 0.00 | 0.00 | 0.00 | 71 | 1002.7 |
| 20260509205103 | 64 | 289 | 3.0 | 9.0 | 0.00 | 0.00 | 0.00 | 70 | 1002.7 |
| 20260509204104 | 64 | 281 | 5.0 | 10.0 | 0.00 | 0.00 | 0.00 | 71 | 1002.8 |
| 20260509203603 | 63 | 279 | 3.0 | 6.0 | 0.00 | 0.00 | 0.00 | 71 | 1002.7 |
| 20260509203103 | 63 | 285 | 4.0 | 10.0 | 0.00 | 0.00 | 0.00 | 69 | 1002.8 |
| 20260509202603 | 63 | 248 | 6.0 | 13.0 | 0.00 | 0.00 | 0.00 | 68 | 1002.7 |
| 20260509202103 | 64 | 277 | 5.0 | 14.0 | 0.00 | 0.00 | 0.00 | 68 | 1002.9 |
| 20260509201603 | 64 | 276 | 5.0 | 10.0 | 0.00 | 0.00 | 0.00 | 67 | 1002.8 |
| 20260509201103 | 64 | 270 | 5.0 | 10.0 | 0.00 | 0.00 | 0.00 | 67 | 1002.7 |
| 20260509200604 | 65 | 243 | 5.0 | 12.0 | 0.00 | 0.00 | 0.00 | 66 | 1002.7 |
| 20260509195103 | 66 | 236 | 5.0 | 13.0 | 0.00 | 0.00 | 0.00 | 66 | 1002.9 |
| 20260509194604 | 65 | 264 | 7.0 | 13.0 | 0.00 | 0.00 | 0.00 | 66 | 1003.0 |
| 20260509194104 | 65 | 276 | 5.0 | 10.0 | 0.00 | 0.00 | 0.00 | 67 | 1002.8 |
| 20260509192104 | 65 | 250 | 7.0 | 13.0 | 0.00 | 0.00 | 0.00 | 64 | 1003.4 |
| 20260509191604 | 65 | 281 | 5.0 | 14.0 | 0.00 | 0.00 | 0.00 | 66 | 1003.4 |
| 20260509191104 | 64 | 259 | 5.0 | 13.0 | 0.00 | 0.00 | 0.00 | 68 | 1003.5 |
| 20260509190603 | 64 | 252 | 5.0 | 9.0 | 0.00 | 0.00 | 0.00 | 68 | 1003.7 |
| 20260509190104 | 64 | 274 | 5.0 | 12.0 | 0.00 | 0.00 | 0.00 | 70 | 1003.7 |
| 20260509185603 | 64 | 276 | 6.0 | 13.0 | 0.00 | 0.00 | 0.00 | 68 | 1003.8 |
| 20260509184603 | 65 | 275 | 7.0 | 12.0 | 0.00 | 0.00 | 0.00 | 66 | 1003.7 |
| 20260509184104 | 65 | 263 | 7.0 | 15.0 | 0.00 | 0.00 | 0.00 | 66 | 1003.7 |
| 20260509183603 | 65 | 249 | 6.0 | 14.0 | 0.00 | 0.00 | 0.00 | 64 | 1003.8 |
| 20260509183103 | 66 | 244 | 4.0 | 8.0 | 0.00 | 0.00 | 0.00 | 68 | 1003.7 |
| 20260509182603 | 64 | 237 | 2.0 | 12.0 | 0.00 | 0.00 | 0.00 | 67 | 1003.7 |
| 20260509181603 | 66 | 272 | 6.0 | 14.0 | 0.00 | 0.00 | 0.00 | 67 | 1004.0 |
| 20260509181103 | 65 | 276 | 7.0 | 14.0 | 0.00 | 0.00 | 0.00 | 68 | 1003.9 |
| 20260509180603 | 65 | 266 | 6.0 | 12.0 | 0.00 | 0.00 | 0.00 | 69 | 1003.8 |
| 20260509180104 | 65 | 265 | 6.0 | 15.0 | 0.00 | 0.00 | 0.00 | 70 | 1003.8 |
| 20260509175603 | 64 | 242 | 5.0 | 15.0 | 0.00 | 0.00 | 0.00 | 70 | 1004.0 |
| 20260509175105 | 64 | 272 | 5.0 | 12.0 | 0.00 | 0.00 | 0.00 | 69 | 1004.1 |
| 20260509174604 | 65 | 260 | 3.0 | 10.0 | 0.00 | 0.00 | 0.00 | 70 | 1004.3 |
| 20260509174104 | 64 | 258 | 3.0 | 12.0 | 0.00 | 0.00 | 0.00 | 68 | 1004.5 |
| 20260509173604 | 64 | 264 | 7.0 | 18.0 | 0.00 | 0.00 | 0.00 | 69 | 1004.5 |
| 20260509173104 | 63 | 272 | 2.0 | 10.0 | 0.00 | 0.00 | 0.00 | 70 | 1004.7 |
| 20260509172604 | 64 | 277 | 6.0 | 13.0 | 0.00 | 0.00 | 0.00 | 69 | 1004.8 |
| 20260509172103 | 63 | 256 | 6.0 | 12.0 | 0.00 | 0.00 | 0.00 | 69 | 1004.9 |
| 20260509171603 | 63 | 275 | 4.0 | 9.0 | 0.00 | 0.00 | 0.00 | 70 | 1004.8 |
| 20260509171103 | 63 | 283 | 4.0 | 9.0 | 0.00 | 0.00 | 0.00 | 67 | 1004.7 |
| 20260509165604 | 63 | 231 | 4.0 | 12.0 | 0.00 | 0.00 | 0.00 | 68 | 1004.9 |
| 20260509164604 | 63 | 271 | 3.0 | 9.0 | 0.00 | 0.00 | 0.00 | 71 | 1004.9 |
| 20260509163603 | 63 | 291 | 4.0 | 15.0 | 0.00 | 0.00 | 0.00 | 71 | 1005.1 |
| 20260509163103 | 64 | 287 | 3.0 | 12.0 | 0.00 | 0.00 | 0.00 | 71 | 1005.2 |
| 20260509162603 | 62 | 277 | 3.0 | 6.0 | 0.00 | 0.00 | 0.00 | 71 | 1005.3 |
| 20260509162103 | 62 | 248 | 4.0 | 10.0 | 0.00 | 0.00 | 0.00 | 72 | 1005.3 |
| 20260509161603 | 61 | 283 | 5.0 | 9.0 | 0.00 | 0.00 | 0.00 | 70 | 1005.3 |
| 20260509161104 | 63 | 292 | 5.0 | 10.0 | 0.00 | 0.00 | 0.00 | 71 | 1005.3 |
| 20260509160603 | 63 | 267 | 3.0 | 8.0 | 0.00 | 0.00 | 0.00 | 72 | 1005.3 |
| 20260509160104 | 63 | 284 | 3.0 | 8.0 | 0.00 | 0.00 | 0.00 | 72 | 1005.2 |
| 20260509155603 | 62 | 282 | 2.0 | 5.0 | 0.00 | 0.00 | 0.00 | 73 | 1005.2 |
| 20260509155104 | 63 | 264 | 3.0 | 10.0 | 0.00 | 0.00 | 0.00 | 72 | 1005.3 |
| 20260509154104 | 63 | 248 | 3.0 | 12.0 | 0.00 | 0.00 | 0.00 | 71 | 1005.5 |
| 20260509153604 | 63 | 240 | 3.0 | 13.0 | 0.00 | 0.00 | 0.00 | 72 | 1005.5 |
| 20260509153103 | 62 | 210 | 2.0 | 5.0 | 0.00 | 0.00 | 0.00 | 78 | 1005.5 |
| 20260509152604 | 60 | 282 | 3.0 | 7.0 | 0.00 | 0.00 | 0.00 | 76 | 1005.7 |
| 20260509152103 | 60 | 266 | 3.0 | 6.0 | 0.00 | 0.00 | 0.00 | 73 | 1005.7 |
| 20260509151104 | 61 | 210 | 2.0 | 9.0 | 0.00 | 0.00 | 0.00 | 77 | 1005.8 |
| 20260509150604 | 61 | 242 | 3.0 | 9.0 | 0.00 | 0.00 | 0.00 | 76 | 1005.9 |
| 20260509150103 | 61 | 274 | 3.0 | 8.0 | 0.00 | 0.00 | 0.00 | 78 | 1005.8 |
| 20260509145604 | 60 | 211 | 3.0 | 12.0 | 0.00 | 0.00 | 0.00 | 77 | 1005.9 |
| 20260509145103 | 58 | 250 | 3.0 | 8.0 | 0.00 | 0.00 | 0.00 | 79 | 1005.8 |
| 20260509144603 | 58 | 250 | 3.0 | 8.0 | 0.00 | 0.00 | 0.00 | 79 | 1005.9 |
| 20260509144104 | 58 | 262 | 4.0 | 9.0 | 0.00 | 0.00 | 0.00 | 79 | 1005.9 |
| 20260509143603 | 59 | 274 | 3.0 | 6.0 | 0.00 | 0.00 | 0.00 | 77 | 1005.9 |
| 20260509143104 | 59 | 239 | 2.0 | 10.0 | 0.00 | 0.00 | 0.00 | 80 | 1005.9 |
| 20260509142603 | 58 | 306 | 3.0 | 7.0 | 0.00 | 0.00 | 0.00 | 80 | 1005.9 |
| 20260509141604 | 58 | 239 | 3.0 | 6.0 | 0.00 | 0.00 | 0.00 | 80 | 1006.0 |
| 20260509141103 | 58 | 262 | 3.0 | 10.0 | 0.00 | 0.00 | 0.00 | 80 | 1006.1 |
| 20260509140603 | 59 | 237 | 4.0 | 8.0 | 0.00 | 0.00 | 0.00 | 80 | 1006.0 |
| 20260509140104 | 58 | 303 | 2.0 | 8.0 | 0.00 | 0.00 | 0.00 | 82 | 1006.1 |
| 20260509135603 | 57 | 256 | 5.0 | 10.0 | 0.00 | 0.00 | 0.00 | 82 | 1006.3 |
| 20260509135103 | 57 | 260 | 5.0 | 12.0 | 0.00 | 0.00 | 0.00 | 82 | 1006.3 |
| 20260509134603 | 57 | 285 | 5.0 | 10.0 | 0.00 | 0.00 | 0.00 | 82 | 1006.4 |
| 20260509134103 | 57 | 257 | 3.0 | 9.0 | 0.00 | 0.00 | 0.00 | 82 | 1006.3 |
| 20260509133605 | 58 | 272 | 3.0 | 6.0 | 0.00 | 0.00 | 0.00 | 81 | 1006.3 |
| 20260509133103 | 58 | 244 | 2.0 | 6.0 | 0.00 | 0.00 | 0.00 | 81 | 1006.3 |
| 20260509132603 | 57 | 241 | 3.0 | 7.0 | 0.00 | 0.00 | 0.00 | 81 | 1006.3 |
| 20260509132103 | 57 | 260 | 2.0 | 12.0 | 0.00 | 0.00 | 0.00 | 83 | 1006.3 |
| 20260509131603 | 57 | 250 | 2.0 | 8.0 | 0.00 | 0.00 | 0.00 | 83 | 1006.4 |
| 20260509131104 | 56 | 233 | 2.0 | 6.0 | 0.00 | 0.00 | 0.00 | 83 | 1006.4 |
| 20260509130604 | 56 | 245 | 5.0 | 10.0 | 0.00 | 0.00 | 0.00 | 84 | 1006.3 |
| 20260509125603 | 54 | 219 | 2.0 | 8.0 | 0.00 | 0.00 | 0.00 | 86 | 1006.4 |
| 20260509125103 | 53 | 239 | 3.0 | 9.0 | 0.00 | 0.00 | 0.00 | 86 | 1006.3 |
| 20260509124604 | 53 | 247 | 2.0 | 8.0 | 0.00 | 0.00 | 0.00 | 86 | 1006.4 |
| 20260509124103 | 53 | 245 | 2.0 | 7.0 | 0.00 | 0.00 | 0.00 | 87 | 1006.4 |
| 20260509123604 | 52 | 250 | 2.0 | 5.0 | 0.00 | 0.00 | 0.00 | 87 | 1006.6 |
| 20260509122605 | 51 | 240 | 1.0 | 6.0 | 0.00 | 0.00 | 0.00 | 87 | 1006.7 |
| 20260509122103 | 51 | 238 | 2.0 | 3.0 | 0.00 | 0.00 | 0.00 | 87 | 1006.8 |
| 20260509121604 | 51 | 245 | 1.0 | 3.0 | 0.00 | 0.00 | 0.00 | 88 | 1006.8 |
| 20260509121104 | 50 | 237 | 1.0 | 5.0 | 0.00 | 0.00 | 0.00 | 88 | 1006.8 |
| 20260509120604 | 50 | 222 | 1.0 | 3.0 | 0.00 | 0.01 | 0.00 | 89 | 1006.8 |
| 20260509120105 | 49 | 220 | 1.0 | 3.0 | 0.00 | 0.01 | 0.00 | 89 | 1006.8 |
| 20260509115603 | 49 | 203 | 2.0 | 3.0 | 0.00 | 0.01 | 0.00 | 89 | 1006.8 |
| 20260509115103 | 48 | 234 | 1.0 | 2.0 | 0.00 | 0.01 | 0.00 | 89 | 1006.7 |
| 20260509114604 | 48 | 224 | 1.0 | 3.0 | 0.00 | 0.01 | 0.00 | 89 | 1006.7 |
| 20260509114104 | 47 | 221 | 1.0 | 3.0 | 0.00 | 0.01 | 0.00 | 89 | 1006.8 |
| 20260509113103 | 47 | 202 | 2.0 | 3.0 | 0.00 | 0.02 | 0.00 | 89 | 1006.6 |
| 20260509112604 | 47 | 212 | 2.0 | 5.0 | 0.00 | 0.02 | 0.00 | 89 | 1006.6 |
| 20260509112104 | 46 | 209 | 2.0 | 3.0 | 0.00 | 0.03 | 0.00 | 89 | 1006.7 |
| 20260509111605 | 46 | 221 | 2.0 | 5.0 | 0.00 | 0.03 | 0.00 | 90 | 1006.8 |
| 20260509111103 | 46 | 216 | 2.0 | 3.0 | 0.00 | 0.04 | 0.00 | 89 | 1006.9 |
| 20260509110104 | 45 | 205 | 1.0 | 3.0 | 0.00 | 0.05 | 0.00 | 89 | 1006.8 |
| 20260509105603 | 45 | 240 | 0.0 | 1.0 | 0.00 | 0.05 | 0.00 | 88 | 1006.9 |
| 20260509104604 | 45 | 240 | 1.0 | 2.0 | 0.00 | 0.05 | 0.00 | 88 | 1007.1 |
| 20260509103603 | 44 | 243 | 2.0 | 3.0 | 0.00 | 0.05 | 0.00 | 88 | 1007.0 |
| 20260509103103 | 44 | 240 | 2.0 | 3.0 | 0.00 | 0.05 | 0.00 | 88 | 1006.9 |
| 20260509102603 | 44 | 242 | 2.0 | 5.0 | 0.00 | 0.05 | 0.00 | 88 | 1007.0 |
| 20260509102103 | 44 | 246 | 3.0 | 5.0 | 0.00 | 0.05 | 0.00 | 87 | 1007.0 |
| 20260509101604 | 44 | 254 | 2.0 | 3.0 | 0.00 | 0.05 | 0.00 | 87 | 1006.9 |
| 20260509101103 | 43 | 245 | 2.0 | 3.0 | 0.00 | 0.05 | 0.00 | 87 | 1006.8 |
| 20260509100604 | 43 | 235 | 1.0 | 2.0 | 0.00 | 0.05 | 0.00 | 87 | 1006.8 |
| 20260509100103 | 43 | 256 | 1.0 | 2.0 | 0.00 | 0.05 | 0.00 | 86 | 1006.8 |
| 20260509095604 | 43 | 256 | 0.0 | 2.0 | 0.00 | 0.05 | 0.00 | 86 | 1006.9 |
| 20260509095103 | 43 | 256 | 1.0 | 2.0 | 0.00 | 0.05 | 0.00 | 86 | 1006.9 |
| 20260509094603 | 43 | 257 | 1.0 | 2.0 | 0.00 | 0.05 | 0.00 | 85 | 1006.8 |
| 20260509093104 | 43 | 245 | 1.0 | 3.0 | 0.00 | 0.05 | 0.00 | 84 | 1006.8 |
| 20260509092604 | 42 | 245 | 1.0 | 2.0 | 0.00 | 0.05 | 0.00 | 84 | 1006.9 |
| 20260509091604 | 42 | 245 | 1.0 | 3.0 | 0.00 | 0.05 | 0.00 | 84 | 1006.9 |
| 20260509091104 | 42 | 238 | 1.0 | 3.0 | 0.00 | 0.05 | 0.00 | 84 | 1006.9 |
| 20260509090605 | 42 | 235 | 1.0 | 3.0 | 0.00 | 0.05 | 0.00 | 84 | 1006.9 |
| 20260509090104 | 42 | 235 | 2.0 | 3.0 | 0.00 | 0.05 | 0.00 | 84 | 1006.9 |
| 20260509085604 | 41 | 234 | 1.0 | 2.0 | 0.00 | 0.05 | 0.00 | 84 | 1006.9 |
| 20260509085104 | 41 | 231 | 1.0 | 2.0 | 0.00 | 0.05 | 0.00 | 84 | 1007.0 |
| 20260509084104 | 41 | 227 | 1.0 | 2.0 | 0.00 | 0.05 | 0.00 | 83 | 1007.1 |
| 20260509083604 | 41 | 226 | 1.0 | 3.0 | 0.00 | 0.05 | 0.00 | 83 | 1007.2 |
| 20260509083104 | 41 | 216 | 1.0 | 2.0 | 0.00 | 0.05 | 0.00 | 83 | 1007.2 |
| 20260509082603 | 41 | 207 | 1.0 | 2.0 | 0.00 | 0.05 | 0.00 | 82 | 1007.2 |
| 20260509082103 | 40 | 207 | 1.0 | 3.0 | 0.00 | 0.05 | 0.00 | 82 | 1007.2 |
| 20260509081604 | 40 | 211 | 2.0 | 3.0 | 0.00 | 0.05 | 0.00 | 82 | 1007.2 |
| 20260509081104 | 40 | 195 | 1.0 | 3.0 | 0.00 | 0.05 | 0.00 | 82 | 1007.3 |
| 20260509080604 | 41 | 197 | 1.0 | 3.0 | 0.00 | 0.05 | 0.00 | 81 | 1007.2 |
| 20260509080104 | 41 | 205 | 1.0 | 3.0 | 0.00 | 0.05 | 0.00 | 81 | 1007.3 |
| 20260509075604 | 41 | 193 | 1.0 | 3.0 | 0.00 | 0.05 | 0.00 | 81 | 1007.3 |
| 20260509075104 | 41 | 205 | 1.0 | 2.0 | 0.00 | 0.05 | 0.00 | 81 | 1007.3 |
| 20260509074603 | 41 | 203 | 1.0 | 2.0 | 0.00 | 0.05 | 0.00 | 81 | 1007.3 |
| 20260509074104 | 40 | 203 | 1.0 | 2.0 | 0.00 | 0.05 | 0.00 | 81 | 1007.4 |
| 20260509073603 | 40 | 201 | 1.0 | 3.0 | 0.00 | 0.05 | 0.00 | 81 | 1007.5 |
| 20260509072604 | 40 | 199 | 1.0 | 2.0 | 0.00 | 0.05 | 0.00 | 80 | 1007.6 |
| 20260509071604 | 40 | 211 | 1.0 | 2.0 | 0.00 | 0.05 | 0.00 | 79 | 1007.6 |
| 20260509071103 | 40 | 198 | 1.0 | 3.0 | 0.00 | 0.05 | 0.00 | 79 | 1007.6 |